Date String (YYYY-MM-DD hh:mm:ss) UTC,Instrument flags,Ambient pressure (hPa),Sample flow (lpm),Bypass flow (lpm),Sample temperature (°C),Ambient temperature (°C),ASC tube jacket temperature (°C),LED temperature (°C),Box temperature (°C),Sample RH (%),Span deviation,Mass concentration (μg/m³),Mass concentration (μg/m³),Mass concentration (μg/m³)
DateTimeUTC,F1_M11,P_M11,Q1_M11,Q2_M11,T1_M11,T2_M11,T3_M11,T4_M11,T5_M11,U1_M11,ZSPAN_M11,X2_M11,X0_M11,X1_M11
2022-12-23 14:00:00,,0831.7,4.96,0.00,22.0,22.0,00.0,30.6,23.7,02.4,0003.5,0005.85,0009.50,0005.33
2022-12-23 14:01:00,,0831.7,5.04,0.00,21.9,21.3,00.0,30.7,23.5,02.4,0003.8,0005.91,0009.73,0005.34
2022-12-23 14:02:00,,0831.7,4.99,0.00,21.8,20.3,00.0,30.7,23.2,02.4,0004.1,0005.90,0010.19,0005.32
2022-12-23 14:03:00,,0831.7,4.98,0.00,21.7,19.6,00.0,30.6,22.9,02.4,0004.0,0005.86,0010.67,0005.29
2022-12-23 14:04:00,,0831.7,5.03,0.00,21.7,20.3,00.0,30.6,23.1,02.4,0003.6,0005.83,0010.59,0005.27
2022-12-23 14:05:00,,0831.7,5.03,0.00,21.8,21.2,00.0,30.5,23.4,02.4,0003.2,0005.84,0010.60,0005.27
2022-12-23 14:06:00,,0831.7,4.96,0.00,21.8,21.8,00.0,30.5,23.5,02.4,0002.9,0005.81,0010.50,0005.26
2022-12-23 14:07:00,,0831.7,5.05,0.00,21.9,22.0,00.0,30.5,23.6,02.4,0003.2,0005.83,0010.49,0005.28
2022-12-23 14:08:00,,0831.7,4.95,0.00,21.9,21.3,00.0,30.6,23.5,02.4,0003.3,0005.87,0010.58,0005.31
2022-12-23 14:09:00,,0831.8,5.02,0.00,21.8,20.7,00.0,30.6,23.3,02.4,0003.1,0005.92,0010.96,0005.34
2022-12-23 14:10:00,,0831.9,5.03,0.00,21.7,20.1,00.0,30.6,23.1,02.4,0002.7,0005.94,0011.33,0005.36
2022-12-23 14:11:00,,0831.9,5.01,0.00,21.6,20.1,00.0,30.6,23.1,02.4,0002.5,0005.90,0011.25,0005.36
2022-12-23 14:12:00,,0831.9,4.96,0.00,21.7,20.9,00.0,30.5,23.3,02.4,0002.4,0005.85,0011.05,0005.35
2022-12-23 14:13:00,,0831.8,5.03,0.00,21.8,21.5,00.0,30.5,23.5,02.4,0002.4,0005.82,0010.64,0005.35
2022-12-23 14:14:00,,0831.8,4.96,0.00,21.9,21.9,00.0,30.5,23.6,02.4,0002.7,0005.81,0009.95,0005.35
2022-12-23 14:15:00,,0831.7,5.03,0.00,22.0,22.0,00.0,30.5,23.7,02.4,0002.8,0005.82,0009.97,0005.35
2022-12-23 14:16:00,,0831.7,5.00,0.00,21.9,20.6,00.0,30.6,23.3,02.4,0002.7,0005.80,0009.94,0005.35
2022-12-23 14:17:00,,0831.8,4.96,0.00,21.6,19.4,00.0,30.6,22.7,02.4,0002.6,0005.82,0010.02,0005.34
2022-12-23 14:18:00,,0831.8,5.01,0.00,21.5,19.4,00.0,30.5,22.6,02.4,0002.2,0005.79,0010.00,0005.32
2022-12-23 14:19:00,,0831.8,5.02,0.00,21.5,20.4,00.0,30.4,23.0,02.4,0001.8,0005.75,0009.90,0005.30
2022-12-23 14:20:00,,0831.7,4.96,0.00,21.6,21.3,00.0,30.4,23.2,02.4,0001.9,0005.71,0009.47,0005.26
2022-12-23 14:21:00,,0831.9,5.03,0.00,21.7,22.0,00.0,30.4,23.4,02.4,0002.2,0005.71,0009.19,0005.25
2022-12-23 14:22:00,,0832.0,4.97,0.00,21.8,22.2,00.0,30.5,23.5,02.4,0002.5,0005.73,0009.25,0005.25
2022-12-23 14:23:00,,0831.9,5.04,0.00,21.8,21.4,00.0,30.5,23.4,02.4,0002.7,0005.71,0009.24,0005.23
2022-12-23 14:24:00,,0831.9,4.99,0.00,21.7,20.6,00.0,30.5,23.1,02.4,0002.7,0005.72,0009.27,0005.23
2022-12-23 14:25:00,,0831.9,4.98,0.00,21.6,20.0,00.0,30.5,23.0,02.4,0002.7,0005.72,0009.28,0005.24
2022-12-23 14:26:00,,0831.9,5.03,0.00,21.5,20.3,00.0,30.5,23.0,02.5,0002.6,0005.74,0009.47,0005.24
2022-12-23 14:27:00,,0832.0,4.98,0.00,21.6,21.3,00.0,30.4,23.3,02.4,0002.7,0005.72,0009.63,0005.24
2022-12-23 14:28:00,,0832.0,5.03,0.00,21.7,22.1,00.0,30.4,23.5,02.4,0002.7,0005.69,0009.49,0005.24
2022-12-23 14:29:00,,0832.0,4.96,0.00,21.8,22.4,00.0,30.5,23.7,02.4,0002.7,0005.70,0009.48,0005.25
2022-12-23 14:30:00,,0832.0,5.04,0.00,21.8,21.6,00.0,30.5,23.5,02.4,0003.1,0005.72,0009.76,0005.27
2022-12-23 14:31:00,,0832.0,5.00,0.00,21.8,21.0,00.0,30.6,23.4,02.4,0003.2,0005.75,0010.30,0005.30
2022-12-23 14:32:00,,0832.0,4.96,0.00,21.7,20.3,00.0,30.6,23.1,02.5,0003.0,0005.75,0010.27,0005.32
2022-12-23 14:33:00,,0831.9,5.03,0.00,21.6,20.1,00.0,30.5,23.1,02.5,0003.3,0005.76,0010.18,0005.33
2022-12-23 14:34:00,,0832.0,5.02,0.00,21.6,21.0,00.0,30.5,23.2,02.5,0003.0,0005.76,0010.38,0005.34
2022-12-23 14:35:00,,0832.0,4.97,0.00,21.8,21.9,00.0,30.5,23.5,02.4,0002.5,0005.75,0010.70,0005.33
2022-12-23 14:36:00,,0831.9,5.02,0.00,21.8,22.1,00.0,30.5,23.6,02.4,0002.4,0005.78,0010.77,0005.32
2022-12-23 14:37:00,,0832.0,4.97,0.00,21.8,21.3,00.0,30.5,23.4,02.4,0002.8,0005.74,0010.53,0005.32
2022-12-23 14:38:00,,0832.0,5.02,0.00,21.7,20.3,00.0,30.6,23.1,02.5,0003.0,0005.72,0010.25,0005.31
2022-12-23 14:39:00,,0832.0,5.01,0.00,21.6,19.8,00.0,30.5,22.9,02.5,0003.0,0005.73,0010.28,0005.30
2022-12-23 14:40:00,,0832.0,4.96,0.00,21.6,20.6,00.0,30.4,23.1,02.5,0002.7,0005.72,0010.23,0005.32
2022-12-23 14:41:00,,0832.0,5.04,0.00,21.7,21.4,00.0,30.4,23.3,02.5,0002.7,0005.70,0009.94,0005.30
2022-12-23 14:42:00,,0831.9,4.97,0.00,21.8,21.9,00.0,30.4,23.5,02.4,0003.1,0005.69,0009.54,0005.28
2022-12-23 14:43:00,,0832.0,5.02,0.00,21.9,22.2,00.0,30.4,23.6,02.4,0002.9,0005.66,0010.15,0005.27
2022-12-23 14:44:00,,0832.0,5.01,0.00,21.8,21.0,00.0,30.5,23.2,02.4,0002.7,0005.65,0010.13,0005.26
2022-12-23 14:45:00,,0832.1,4.96,0.00,21.6,19.6,00.0,30.5,22.7,02.5,0002.4,0005.62,0009.93,0005.24
2022-12-23 14:46:00,,0832.2,5.02,0.00,21.4,19.2,00.0,30.5,22.5,02.5,0002.5,0005.62,0009.52,0005.25
2022-12-23 14:47:00,,0832.1,5.02,0.00,21.4,20.3,00.0,30.4,22.8,02.5,0002.1,0005.62,0009.49,0005.27
2022-12-23 14:48:00,,0832.1,4.96,0.00,21.5,21.3,00.0,30.4,23.1,02.5,0001.7,0005.66,0009.61,0005.28
2022-12-23 14:49:00,,0832.1,5.03,0.00,21.6,22.0,00.0,30.4,23.3,02.5,0001.4,0005.70,0009.76,0005.29
2022-12-23 14:50:00,,0832.1,4.96,0.00,21.7,21.8,00.0,30.4,23.3,02.5,0001.0,0005.69,0009.84,0005.27
2022-12-23 14:51:00,,0832.1,5.05,0.00,21.6,20.7,00.0,30.4,23.0,02.5,0001.1,0005.70,0009.86,0005.27
2022-12-23 14:52:00,,0832.1,4.98,0.00,21.5,19.8,00.0,30.4,22.7,02.5,0000.7,0005.75,0010.00,0005.27
2022-12-23 14:53:00,,0832.1,4.99,0.00,21.3,19.8,00.0,30.4,22.7,02.5,0000.9,0005.76,0010.03,0005.28
2022-12-23 14:54:00,,0832.1,5.03,0.00,21.4,21.0,00.0,30.3,23.0,02.5,0001.0,0005.81,0009.66,0005.30
2022-12-23 14:55:00,,0832.1,4.97,0.00,21.5,22.1,00.0,30.3,23.3,02.5,0000.9,0005.82,0009.64,0005.29
2022-12-23 14:56:00,,0832.1,5.04,0.00,21.6,22.0,00.0,30.4,23.3,02.5,0001.2,0005.84,0009.90,0005.30
2022-12-23 14:57:00,,0832.1,4.97,0.00,21.6,21.2,00.0,30.4,23.1,02.5,0001.4,0005.83,0009.88,0005.31
2022-12-23 14:58:00,,0832.1,5.04,0.00,21.5,20.4,00.0,30.4,22.9,02.5,0001.6,0005.81,0009.89,0005.29
2022-12-23 14:59:00,,0832.1,4.99,0.00,21.4,19.9,00.0,30.4,22.8,02.5,0001.3,0005.80,0009.90,0005.27
